EW0531 Weather Reports


Display with metric or nautical units.
time (UTC)temp
F
wind
direction
speed
MPH
gust
MPH
rain 1hr
in
rain 24hr
in
rain mn
in
humidity
%
barometer
mb
20260502210100 54 0 0.0 2.0 0.00 0.20 0.20 88 1011.3
20260502205535 54 0 0.0 1.0 0.00 0.20 0.20 87 1011.2
20260502205036 54 0 0.0 2.0 0.00 0.20 0.20 87 1011.2
20260502204554 54 0 0.0 2.0 0.00 0.20 0.20 87 1011.2
20260502204036 54 0 0.0 2.0 0.00 0.20 0.20 87 1011.2
20260502203537 54 0 0.0 2.0 0.00 0.20 0.20 87 1011.3
20260502203044 54 0 0.0 0.0 0.00 0.20 0.20 87 1011.3
20260502202536 54 0 0.0 0.0 0.00 0.20 0.20 87 1011.2
20260502202036 55 0 0.0 0.0 0.00 0.20 0.20 87 1011.2
20260502201552 55 0 0.0 0.0 0.00 0.20 0.20 87 1011.4
20260502201036 55 0 0.0 1.0 0.00 0.20 0.20 87 1011.4
20260502200537 55 0 0.0 1.0 0.00 0.20 0.20 87 1011.5
20260502200049 55 147 0.0 1.0 0.00 0.20 0.20 86 1011.5
20260502195536 55 0 0.0 1.0 0.00 0.20 0.20 86 1011.4
20260502195035 55 0 0.0 2.0 0.00 0.20 0.20 86 1011.3
20260502194545 55 0 0.0 3.0 0.00 0.20 0.20 86 1011.4
20260502194035 55 0 0.0 5.0 0.00 0.20 0.20 86 1011.4
20260502193537 55 0 1.0 5.0 0.00 0.20 0.20 86 1011.3
20260502193100 55 155 0.0 6.0 0.00 0.20 0.20 85 1011.4
20260502192536 55 0 1.0 6.0 0.00 0.20 0.20 85 1011.5
20260502192036 55 151 1.0 7.0 0.00 0.20 0.20 85 1011.5
20260502191557 55 171 0.0 8.0 0.00 0.20 0.20 85 1011.6
20260502191036 55 196 2.0 8.0 0.00 0.20 0.20 85 1011.6
20260502190536 55 171 1.0 8.0 0.00 0.20 0.20 85 1011.6
20260502190104 55 154 1.0 8.0 0.00 0.20 0.20 85 1011.6
20260502185537 55 165 2.0 8.0 0.00 0.20 0.20 85 1011.6
20260502185036 55 137 3.0 8.0 0.00 0.20 0.20 84 1011.7
20260502184558 56 156 2.0 7.0 0.00 0.20 0.20 84 1011.7
20260502184036 56 150 2.0 9.0 0.00 0.20 0.20 84 1011.6
20260502183537 56 140 2.0 9.0 0.00 0.20 0.20 84 1011.6
20260502183108 56 188 1.0 8.0 0.00 0.20 0.20 84 1011.6
20260502182536 56 0 0.0 8.0 0.00 0.20 0.20 84 1011.7
20260502182033 56 190 0.0 7.0 0.00 0.20 0.20 84 1011.7
20260502181550 56 0 0.0 7.0 0.00 0.20 0.20 84 1011.6
20260502181033 56 165 1.0 8.0 0.00 0.20 0.20 84 1011.7
20260502180540 56 169 2.0 8.0 0.00 0.20 0.20 83 1011.9
20260502164035 56 106 5.0 10.0 0.00 0.20 0.20 82 1012.4
20260502163535 56 70 3.0 9.0 0.00 0.20 0.20 83 1012.5
20260502163054 56 157 4.0 9.0 0.00 0.20 0.20 84 1012.4
20260502162536 56 155 4.0 9.0 0.00 0.20 0.20 84 1012.4
20260502162035 56 150 3.0 10.0 0.00 0.20 0.20 85 1012.6
20260502161554 56 149 3.0 10.0 0.00 0.20 0.20 85 1012.7
20260502161035 56 157 2.0 9.0 0.00 0.20 0.20 87 1012.7
20260502160537 56 144 2.0 9.0 0.00 0.20 0.20 87 1012.7
20260502152039 55 0 0.0 4.0 0.01 0.20 0.20 87 1013.1
20260502151604 55 140 1.0 6.0 0.01 0.20 0.20 86 1013.2
20260502151041 55 144 0.0 6.0 0.02 0.20 0.20 86 1013.2
20260502150538 55 133 2.0 6.0 0.03 0.20 0.20 86 1013.3
20260502130542 62 155 2.0 7.0 0.00 0.00 0.00 70 1014.6
20260502123537 63 86 3.0 9.0 0.00 0.00 0.00 55 1014.9
20260502123048 64 134 4.0 9.0 0.00 0.00 0.00 56 1015.0
20260502122538 64 132 4.0 8.0 0.00 0.00 0.00 56 1015.1
20260502122038 64 164 2.0 8.0 0.00 0.00 0.00 57 1015.3
20260502121554 64 159 4.0 8.0 0.00 0.00 0.00 56 1015.4
20260502121036 63 142 2.0 8.0 0.00 0.00 0.00 56 1015.5
20260502120535 63 111 3.0 7.0 0.00 0.00 0.00 54 1015.6
20260502115533 63 136 3.0 12.0 0.00 0.00 0.00 55 1015.8
20260502115034 63 155 4.0 10.0 0.00 0.00 0.00 55 1015.7
20260502114554 63 103 4.0 8.0 0.00 0.00 0.00 56 1015.8
20260502114034 63 150 2.0 9.0 0.00 0.00 0.00 60 1015.9
20260502113534 63 143 4.0 9.0 0.00 0.00 0.00 60 1016.0
20260502113054 64 118 4.0 9.0 0.00 0.00 0.00 56 1016.1
20260502112533 64 127 3.0 11.0 0.00 0.00 0.00 59 1016.1
20260502112036 64 115 5.0 11.0 0.00 0.00 0.00 56 1016.1
20260502111554 64 136 3.0 10.0 0.00 0.00 0.00 58 1016.1
20260502111036 63 213 4.0 10.0 0.00 0.00 0.00 61 1016.1
20260502110535 63 151 5.0 10.0 0.00 0.00 0.00 61 1016.1
20260502110054 64 190 4.0 10.0 0.00 0.00 0.00 63 1016.2
20260502105535 64 159 3.0 7.0 0.00 0.00 0.00 62 1016.2
20260502105034 64 154 3.0 7.0 0.00 0.00 0.00 59 1016.2
20260502104554 64 168 3.0 8.0 0.00 0.00 0.00 60 1016.3
20260502104033 64 185 3.0 8.0 0.00 0.00 0.00 63 1016.4
20260502103534 63 150 3.0 9.0 0.00 0.00 0.00 64 1016.5
20260502103051 63 187 4.0 9.0 0.00 0.00 0.00 65 1016.6
20260502102534 63 134 3.0 9.0 0.00 0.00 0.00 65 1016.8
20260502102033 63 199 2.0 8.0 0.00 0.00 0.00 68 1016.8
20260502101556 62 150 3.0 8.0 0.00 0.00 0.00 70 1016.9
20260502101035 62 139 2.0 7.0 0.00 0.00 0.00 71 1017.1
20260502100534 61 186 3.0 9.0 0.00 0.00 0.00 72 1017.1
20260502091034 60 86 2.0 7.0 0.00 0.00 0.00 74 1017.6
20260502090536 59 140 2.0 6.0 0.00 0.00 0.00 75 1017.7
20260502071033 54 0 1.0 3.0 0.00 0.00 0.00 87 1018.5
20260502070533 54 0 0.0 3.0 0.00 0.00 0.00 87 1018.7
20260502070052 53 31 1.0 3.0 0.00 0.00 0.00 88 1018.5
20260502065536 53 26 1.0 3.0 0.00 0.00 0.00 88 1018.5
20260502065035 53 0 0.0 3.0 0.00 0.00 0.00 88 1018.7
20260502064542 52 0 0.0 0.0 0.00 0.00 0.00 89 1018.6
20260502064034 52 0 0.0 0.0 0.00 0.00 0.00 88 1018.6
20260502063537 52 0 0.0 3.0 0.00 0.00 0.00 89 1018.6
20260502063046 51 0 0.0 3.0 0.00 0.00 0.00 89 1018.5
20260502062538 51 0 0.0 3.0 0.00 0.00 0.00 88 1018.4
20260502062033 51 0 0.0 3.0 0.00 0.00 0.00 88 1018.3
20260502061547 51 0 0.0 3.0 0.00 0.00 0.00 88 1018.3
20260502061033 51 0 0.0 2.0 0.00 0.00 0.00 88 1018.4
20260502060534 51 0 0.0 2.0 0.00 0.00 0.00 88 1018.4
20260502060045 51 0 0.0 2.0 0.00 0.00 0.00 88 1018.6
20260502055536 51 0 0.0 0.0 0.00 0.00 0.00 88 1018.5
20260502055035 51 0 0.0 0.0 0.00 0.00 0.00 88 1018.6
20260502054545 51 0 0.0 0.0 0.00 0.00 0.00 88 1018.6
20260502054033 51 0 0.0 0.0 0.00 0.00 0.00 88 1018.5
20260502053534 50 0 0.0 0.0 0.00 0.00 0.00 88 1018.5
20260502053059 50 0 0.0 0.0 0.00 0.00 0.00 88 1018.5
20260502052534 50 0 0.0 0.0 0.00 0.00 0.00 88 1018.6
20260502052033 50 0 0.0 1.0 0.00 0.00 0.00 88 1018.5
20260502051604 50 0 0.0 2.0 0.00 0.00 0.00 87 1018.5
20260502051037 50 0 0.0 2.0 0.00 0.00 0.00 87 1018.5
20260502050537 50 0 0.0 2.0 0.00 0.00 0.00 87 1018.5
20260502050046 51 0 0.0 2.0 0.00 0.00 0.00 87 1018.6
20260502045537 51 0 0.0 0.0 0.00 0.00 0.00 87 1018.6
20260502045039 51 0 0.0 1.0 0.00 0.00 0.00 87 1018.7
20260502044549 51 0 0.0 3.0 0.00 0.00 0.00 87 1018.6
20260502044037 51 0 0.0 3.0 0.00 0.00 0.00 86 1018.7
20260502043539 51 85 0.0 0.0 0.00 0.00 0.00 86 1018.7
20260502043051 51 0 0.0 0.0 0.00 0.00 0.00 86 1018.6
20260502042541 52 0 0.0 0.0 0.00 0.00 0.00 86 1018.6
20260502042037 52 0 0.0 1.0 0.00 0.00 0.00 86 1018.6
20260502041621 52 0 0.0 1.0 0.00 0.00 0.00 86 1018.5
20260502041040 52 0 0.0 0.0 0.00 0.00 0.00 86 1018.5
20260502040537 52 0 0.0 0.0 0.00 0.00 0.00 86 1018.5
20260502040047 52 0 0.0 0.0 0.00 0.00 0.00 86 1018.7
20260502035537 52 0 0.0 0.0 0.00 0.00 0.00 86 1018.7
20260502035037 52 0 0.0 0.0 0.00 0.00 0.00 86 1018.8
20260502034545 52 0 0.0 0.0 0.00 0.00 0.00 86 1018.9
20260502034036 53 0 0.0 0.0 0.00 0.00 0.00 86 1018.9
20260502033540 53 0 0.0 0.0 0.00 0.00 0.00 86 1018.8
20260502033103 53 0 0.0 0.0 0.00 0.00 0.00 86 1018.9
20260502032537 53 0 0.0 1.0 0.00 0.00 0.00 86 1018.8
20260502032038 53 0 0.0 3.0 0.00 0.00 0.00 86 1019.0
20260502031548 53 0 0.0 3.0 0.00 0.00 0.00 86 1018.9
20260502031038 53 0 1.0 4.0 0.00 0.00 0.00 86 1019.0
20260502030538 53 310 0.0 4.0 0.00 0.00 0.00 85 1019.0
20260502030043 53 280 2.0 4.0 0.00 0.00 0.00 86 1019.0
20260502025537 53 0 1.0 4.0 0.00 0.00 0.00 86 1018.9
20260502025037 53 285 0.0 4.0 0.00 0.00 0.00 86 1019.0
20260502024545 53 336 0.0 4.0 0.00 0.00 0.00 86 1019.0
20260502024037 53 0 0.0 2.0 0.00 0.00 0.00 86 1019.3
20260502023537 53 0 0.0 3.0 0.00 0.00 0.00 86 1019.2
20260502023051 53 0 1.0 3.0 0.00 0.00 0.00 86 1019.3
20260502022537 53 0 0.0 0.0 0.00 0.00 0.00 86 1019.3
20260502022109 53 0 0.0 0.0 0.00 0.00 0.00 86 1019.4
20260502021546 53 0 0.0 0.0 0.00 0.00 0.00 86 1019.5
20260502021037 53 0 0.0 0.0 0.00 0.00 0.00 86 1019.4
20260502020534 53 0 0.0 0.0 0.00 0.00 0.00 86 1019.4
20260502020053 53 0 0.0 0.0 0.00 0.00 0.00 86 1019.5
20260502015535 53 0 0.0 0.0 0.00 0.00 0.00 86 1019.5
20260502015036 53 0 0.0 0.0 0.00 0.00 0.00 86 1019.6
20260502014548 53 0 0.0 0.0 0.00 0.00 0.00 86 1019.6
20260502014035 52 0 0.0 0.0 0.00 0.00 0.00 86 1019.6
20260502013534 52 0 0.0 0.0 0.00 0.00 0.00 86 1019.7
20260502013048 52 0 0.0 2.0 0.00 0.00 0.00 86 1019.7
20260502012534 52 0 0.0 2.0 0.00 0.00 0.00 86 1019.7
20260502012036 52 261 0.0 2.0 0.00 0.00 0.00 86 1019.8
20260502011547 52 0 0.0 0.0 0.00 0.00 0.00 86 1019.7
20260502011032 52 0 0.0 0.0 0.00 0.00 0.00 85 1019.8
20260502010535 52 0 0.0 0.0 0.00 0.00 0.00 85 1019.9
20260502010042 52 0 0.0 0.0 0.00 0.00 0.00 85 1019.8
20260502005535 52 0 0.0 0.0 0.00 0.00 0.00 84 1019.9
20260502005035 52 0 0.0 0.0 0.00 0.00 0.00 84 1019.9
20260502004546 52 0 0.0 0.0 0.00 0.00 0.00 84 1019.9
20260502004035 52 0 0.0 0.0 0.00 0.00 0.00 84 1020.0
20260502003534 52 0 0.0 0.0 0.00 0.00 0.00 84 1020.1
20260502003049 53 0 0.0 2.0 0.00 0.00 0.00 84 1020.1
20260502002535 53 0 0.0 2.0 0.00 0.00 0.00 83 1020.2
20260502002033 53 0 0.0 1.0 0.00 0.00 0.00 83 1020.2
20260502001557 53 0 0.0 3.0 0.00 0.00 0.00 83 1020.2
20260502001035 53 261 0.0 3.0 0.00 0.00 0.00 83 1020.3
20260502000535 53 261 0.0 4.0 0.00 0.00 0.00 83 1020.4
20260502000047 53 250 1.0 5.0 0.00 0.00 0.00 83 1020.3
20260501235533 53 246 0.0 6.0 0.00 0.00 0.00 83 1020.3
20260501235034 53 207 2.0 6.0 0.00 0.00 0.00 83 1020.3
20260501234547 53 214 3.0 7.0 0.00 0.00 0.00 83 1020.4
20260501234036 54 229 3.0 7.0 0.00 0.00 0.00 83 1020.5
20260501233535 54 234 3.0 7.0 0.00 0.00 0.00 83 1020.6
20260501233052 54 212 1.0 5.0 0.00 0.00 0.00 84 1020.6
20260501232534 54 0 0.0 0.0 0.00 0.00 0.00 84 1020.6
20260501232034 54 0 0.0 2.0 0.00 0.00 0.00 84 1020.7
20260501231558 54 0 0.0 3.0 0.00 0.00 0.00 84 1020.8
20260501231033 54 265 0.0 3.0 0.00 0.00 0.00 85 1020.7
20260501230534 54 297 1.0 4.0 0.00 0.00 0.00 85 1020.7
20260501230048 54 0 0.0 4.0 0.00 0.00 0.00 85 1020.9
20260501225534 54 261 1.0 6.0 0.00 0.00 0.00 85 1020.8
20260501225036 53 281 1.0 6.0 0.00 0.00 0.00 85 1020.9
20260501224548 54 281 2.0 7.0 0.00 0.00 0.00 85 1020.9
20260501224038 53 251 2.0 7.0 0.00 0.00 0.00 85 1021.0
20260501223534 53 267 1.0 4.0 0.00 0.00 0.00 85 1021.0
20260501223110 53 262 1.0 6.0 0.00 0.00 0.00 86 1020.9
20260501222540 53 298 2.0 6.0 0.00 0.00 0.00 86 1020.9
20260501222036 53 269 1.0 4.0 0.00 0.00 0.00 86 1021.0
20260501221548 53 257 0.0 7.0 0.00 0.00 0.00 86 1021.0
20260501221034 53 229 2.0 7.0 0.00 0.00 0.00 86 1020.9
20260501220536 53 264 1.0 7.0 0.00 0.00 0.00 86 1021.0
20260501220053 53 265 3.0 7.0 0.00 0.00 0.00 86 1021.0
20260501215533 53 233 2.0 7.0 0.00 0.00 0.00 85 1021.0
20260501215033 53 252 2.0 6.0 0.00 0.00 0.00 86 1020.9
20260501214554 53 254 1.0 4.0 0.00 0.00 0.00 86 1020.8
20260501214033 53 260 1.0 5.0 0.00 0.00 0.00 85 1020.8
20260501213533 53 250 2.0 7.0 0.00 0.00 0.00 85 1020.8
20260501213047 53 250 2.0 7.0 0.00 0.00 0.00 85 1020.8
20260501212534 53 223 3.0 7.0 0.00 0.00 0.00 85 1020.8
20260501212039 53 219 1.0 3.0 0.00 0.00 0.00 85 1020.8
20260501211547 53 250 1.0 3.0 0.00 0.00 0.00 85 1020.8
20260501211035 53 209 0.0 4.0 0.00 0.00 0.00 85 1020.7
20260501210533 53 0 1.0 4.0 0.00 0.00 0.00 84 1020.6